Time,TemperatureF,DewpointF,PressureIn,WindDirection,WindDirectionDegrees,WindSpeedMPH,WindSpeedGustMPH,Humidity,HourlyPrecipIn,Conditions,Clouds,dailyrainin,SolarRadiationWatts/m^2,SoftwareType,DateUTC
2013-02-18 00:22:00,30.0,21.0,-100.00,East,89,3.0,7.0,68,0.00,,,0.00,120.000000,,2013-02-18 00:22:00,
2013-02-18 00:31:00,30.0,21.0,-100.00,East,89,3.0,7.0,68,0.00,,,0.00,120.000000,,2013-02-18 00:31:00,
2013-02-18 00:41:00,30.0,21.0,-100.00,East,89,3.0,7.0,68,0.00,,,0.00,120.000000,,2013-02-18 00:41:00,
2013-02-18 00:52:00,30.0,21.0,-100.00,East,89,3.0,7.0,68,0.00,,,0.00,120.000000,,2013-02-18 00:52:00,
2013-02-18 01:21:00,29.0,19.0,-100.00,NE,35,1.0,7.0,67,0.00,,,0.00,69.000000,,2013-02-18 01:21:00,
2013-02-18 01:31:00,29.0,19.0,-100.00,NE,35,1.0,7.0,67,0.00,,,0.00,69.000000,,2013-02-18 01:31:00,
2013-02-18 01:41:00,29.0,19.0,-100.00,NE,35,1.0,7.0,67,0.00,,,0.00,69.000000,,2013-02-18 01:41:00,
2013-02-18 01:51:00,29.0,19.0,-100.00,NE,35,1.0,7.0,67,0.00,,,0.00,69.000000,,2013-02-18 01:51:00,
2013-02-18 02:21:00,29.0,20.0,-100.00,East,81,2.0,6.0,68,0.00,,,0.00,52.000000,,2013-02-18 02:21:00,
2013-02-18 02:32:00,29.0,20.0,-100.00,East,81,2.0,6.0,68,0.00,,,0.00,52.000000,,2013-02-18 02:32:00,
2013-02-18 02:41:00,29.0,20.0,-100.00,East,81,2.0,6.0,68,0.00,,,0.00,52.000000,,2013-02-18 02:41:00,
2013-02-18 02:52:00,29.0,20.0,-100.00,East,81,2.0,6.0,68,0.00,,,0.00,52.000000,,2013-02-18 02:52:00,
2013-02-18 03:21:00,26.0,19.0,-100.00,East,90,0.0,9.0,75,0.00,,,0.00,11.000000,,2013-02-18 03:21:00,
2013-02-18 03:31:00,26.0,19.0,-100.00,East,90,0.0,9.0,75,0.00,,,0.00,11.000000,,2013-02-18 03:31:00,
2013-02-18 03:42:00,26.0,19.0,-100.00,East,90,0.0,9.0,75,0.00,,,0.00,11.000000,,2013-02-18 03:42:00,
2013-02-18 03:51:00,26.0,19.0,-100.00,East,90,0.0,9.0,75,0.00,,,0.00,11.000000,,2013-02-18 03:51:00,
2013-02-18 04:21:00,25.0,19.0,-100.00,North,10,1.0,5.0,76,0.00,,,0.00,0.000000,,2013-02-18 04:21:00,
2013-02-18 04:32:00,25.0,19.0,-100.00,North,10,1.0,5.0,76,0.00,,,0.00,0.000000,,2013-02-18 04:32:00,
2013-02-18 04:41:00,25.0,19.0,-100.00,North,10,1.0,5.0,76,0.00,,,0.00,0.000000,,2013-02-18 04:41:00,
2013-02-18 04:51:00,25.0,19.0,-100.00,North,10,1.0,5.0,76,0.00,,,0.00,0.000000,,2013-02-18 04:51:00,
2013-02-18 05:21:00,25.0,19.0,-100.00,ENE,72,1.0,6.0,78,0.00,,,0.00,0.000000,,2013-02-18 05:21:00,
2013-02-18 05:31:00,25.0,19.0,-100.00,ENE,72,1.0,6.0,78,0.00,,,0.00,0.000000,,2013-02-18 05:31:00,
2013-02-18 05:41:00,25.0,19.0,-100.00,ENE,72,1.0,6.0,78,0.00,,,0.00,0.000000,,2013-02-18 05:41:00,
2013-02-18 05:51:00,25.0,19.0,-100.00,ENE,72,1.0,6.0,78,0.00,,,0.00,0.000000,,2013-02-18 05:51:00,
2013-02-18 06:21:00,27.0,18.0,-100.00,East,82,5.0,10.0,69,0.00,,,-99.99,0.000000,,2013-02-18 06:21:00,
2013-02-18 06:31:00,27.0,18.0,-100.00,East,82,5.0,10.0,69,0.00,,,-99.99,0.000000,,2013-02-18 06:31:00,
2013-02-18 06:41:00,27.0,18.0,-100.00,East,82,5.0,10.0,69,0.00,,,-99.99,0.000000,,2013-02-18 06:41:00,
2013-02-18 06:51:00,27.0,18.0,-100.00,East,82,5.0,10.0,69,0.00,,,-99.99,0.000000,,2013-02-18 06:51:00,
2013-02-18 07:21:00,26.0,19.0,-100.00,NNE,15,2.0,11.0,73,0.00,,,0.00,0.000000,,2013-02-18 07:21:00,
2013-02-18 07:31:00,26.0,19.0,-100.00,NNE,15,2.0,11.0,73,0.00,,,0.00,0.000000,,2013-02-18 07:31:00,
2013-02-18 07:42:00,26.0,19.0,-100.00,NNE,15,2.0,11.0,73,0.00,,,0.00,0.000000,,2013-02-18 07:42:00,
2013-02-18 07:51:00,26.0,19.0,-100.00,NNE,15,2.0,11.0,73,0.00,,,0.00,0.000000,,2013-02-18 07:51:00,
2013-02-18 08:21:00,26.0,19.0,-100.00,East,80,2.0,6.0,75,0.00,,,0.00,0.000000,,2013-02-18 08:21:00,
2013-02-18 08:32:00,26.0,19.0,-100.00,East,80,2.0,6.0,75,0.00,,,0.00,0.000000,,2013-02-18 08:32:00,
2013-02-18 08:42:00,26.0,19.0,-100.00,East,80,2.0,6.0,75,0.00,,,0.00,0.000000,,2013-02-18 08:42:00,
2013-02-18 08:52:00,26.0,19.0,-100.00,East,80,2.0,6.0,75,0.00,,,0.00,0.000000,,2013-02-18 08:52:00,
2013-02-18 09:22:00,26.0,19.0,-100.00,North,3,2.0,9.0,73,0.00,,,0.00,0.000000,,2013-02-18 09:22:00,
2013-02-18 09:31:00,26.0,19.0,-100.00,North,3,2.0,9.0,73,0.00,,,0.00,0.000000,,2013-02-18 09:31:00,
2013-02-18 09:41:00,26.0,19.0,-100.00,North,3,2.0,9.0,73,0.00,,,0.00,0.000000,,2013-02-18 09:41:00,
2013-02-18 09:51:00,26.0,19.0,-100.00,North,3,2.0,9.0,73,0.00,,,0.00,0.000000,,2013-02-18 09:51:00,
2013-02-18 10:21:00,23.0,18.0,-100.00,SW,226,1.0,7.0,80,0.00,,,-99.99,0.000000,,2013-02-18 10:21:00,
2013-02-18 10:31:00,23.0,18.0,-100.00,SW,226,1.0,7.0,80,0.00,,,-99.99,0.000000,,2013-02-18 10:31:00,
2013-02-18 10:42:00,23.0,18.0,-100.00,SW,226,1.0,7.0,80,0.00,,,-99.99,0.000000,,2013-02-18 10:42:00,
2013-02-18 10:51:00,23.0,18.0,-100.00,SW,226,1.0,7.0,80,0.00,,,-99.99,0.000000,,2013-02-18 10:51:00,
2013-02-18 11:21:00,19.0,16.0,-100.00,SSW,213,2.0,4.0,86,0.00,,,0.00,0.000000,,2013-02-18 11:21:00,
2013-02-18 11:32:00,19.0,16.0,-100.00,SSW,213,2.0,4.0,86,0.00,,,0.00,0.000000,,2013-02-18 11:32:00,
2013-02-18 11:42:00,19.0,16.0,-100.00,SSW,213,2.0,4.0,86,0.00,,,0.00,0.000000,,2013-02-18 11:42:00,
2013-02-18 11:52:00,19.0,16.0,-100.00,SSW,213,2.0,4.0,86,0.00,,,0.00,0.000000,,2013-02-18 11:52:00,
2013-02-18 12:22:00,18.0,15.0,-100.00,SSW,204,2.0,6.0,88,0.00,,,0.00,0.000000,,2013-02-18 12:22:00,
2013-02-18 12:32:00,18.0,15.0,-100.00,SSW,204,2.0,6.0,88,0.00,,,0.00,0.000000,,2013-02-18 12:32:00,
2013-02-18 12:42:00,18.0,15.0,-100.00,SSW,204,2.0,6.0,88,0.00,,,0.00,0.000000,,2013-02-18 12:42:00,
2013-02-18 12:52:00,18.0,15.0,-100.00,SSW,204,2.0,6.0,88,0.00,,,0.00,0.000000,,2013-02-18 12:52:00,
2013-02-18 13:32:00,16.0,13.0,-100.00,SW,215,2.0,4.0,88,0.00,,,0.00,0.000000,,2013-02-18 13:32:00,
2013-02-18 13:42:00,16.0,13.0,-100.00,SW,215,2.0,4.0,88,0.00,,,0.00,0.000000,,2013-02-18 13:42:00,
2013-02-18 13:52:00,16.0,13.0,-100.00,SW,215,2.0,4.0,88,0.00,,,0.00,0.000000,,2013-02-18 13:52:00,
2013-02-18 14:22:00,13.0,10.0,-100.00,WSW,246,0.0,4.0,88,0.00,,,0.00,0.000000,,2013-02-18 14:22:00,
2013-02-18 14:32:00,13.0,10.0,-100.00,WSW,246,0.0,4.0,88,0.00,,,0.00,0.000000,,2013-02-18 14:32:00,
2013-02-18 14:41:00,13.0,10.0,-100.00,WSW,246,0.0,4.0,88,0.00,,,0.00,0.000000,,2013-02-18 14:41:00,
2013-02-18 14:52:00,13.0,10.0,-100.00,WSW,246,0.0,4.0,88,0.00,,,0.00,0.000000,,2013-02-18 14:52:00,
2013-02-18 15:22:00,12.0,9.0,-100.00,SE,138,0.0,3.0,86,0.00,,,0.00,0.000000,,2013-02-18 15:22:00,
2013-02-18 15:32:00,12.0,9.0,-100.00,SE,138,0.0,3.0,86,0.00,,,0.00,0.000000,,2013-02-18 15:32:00,
2013-02-18 15:42:00,12.0,9.0,-100.00,SE,138,0.0,3.0,86,0.00,,,0.00,0.000000,,2013-02-18 15:42:00,
2013-02-18 15:52:00,12.0,9.0,-100.00,SE,138,0.0,3.0,86,0.00,,,0.00,0.000000,,2013-02-18 15:52:00,
2013-02-18 16:22:00,11.0,8.0,-100.00,ENE,75,0.0,1.0,86,0.00,,,0.00,0.000000,,2013-02-18 16:22:00,
2013-02-18 16:32:00,11.0,8.0,-100.00,ENE,75,0.0,1.0,86,0.00,,,0.00,0.000000,,2013-02-18 16:32:00,
2013-02-18 16:42:00,11.0,8.0,-100.00,ENE,75,0.0,1.0,86,0.00,,,0.00,0.000000,,2013-02-18 16:42:00,
2013-02-18 16:52:00,11.0,8.0,-100.00,ENE,75,0.0,1.0,86,0.00,,,0.00,0.000000,,2013-02-18 16:52:00,
2013-02-18 17:22:00,11.0,7.0,-100.00,South,187,0.0,1.0,85,0.00,,,-99.99,0.000000,,2013-02-18 17:22:00,
2013-02-18 17:32:00,11.0,7.0,-100.00,South,187,0.0,1.0,85,0.00,,,-99.99,0.000000,,2013-02-18 17:32:00,
2013-02-18 17:42:00,11.0,7.0,-100.00,South,187,0.0,1.0,85,0.00,,,-99.99,0.000000,,2013-02-18 17:42:00,
2013-02-18 17:52:00,11.0,7.0,-100.00,South,187,0.0,1.0,85,0.00,,,-99.99,0.000000,,2013-02-18 17:52:00,
2013-02-18 18:22:00,13.0,9.0,-100.00,SSW,203,0.0,2.0,85,0.00,,,0.00,9.000000,,2013-02-18 18:22:00,
2013-02-18 18:32:00,13.0,9.0,-100.00,SSW,203,0.0,2.0,85,0.00,,,0.00,9.000000,,2013-02-18 18:32:00,
2013-02-18 18:42:00,13.0,9.0,-100.00,SSW,203,0.0,2.0,85,0.00,,,0.00,9.000000,,2013-02-18 18:42:00,
2013-02-18 18:52:00,13.0,9.0,-100.00,SSW,203,0.0,2.0,85,0.00,,,0.00,9.000000,,2013-02-18 18:52:00,
2013-02-18 19:22:00,19.0,15.0,-100.00,SW,225,3.0,6.0,84,0.00,,,0.00,56.000000,,2013-02-18 19:22:00,
2013-02-18 19:33:00,19.0,15.0,-100.00,SW,225,3.0,6.0,84,0.00,,,0.00,56.000000,,2013-02-18 19:33:00,
2013-02-18 19:42:00,19.0,15.0,-100.00,SW,225,3.0,6.0,84,0.00,,,0.00,56.000000,,2013-02-18 19:42:00,
2013-02-18 19:52:00,19.0,15.0,-100.00,SW,225,3.0,6.0,84,0.00,,,0.00,56.000000,,2013-02-18 19:52:00,
2013-02-18 20:22:00,20.0,14.0,-100.00,West,269,2.0,8.0,78,0.00,,,0.00,96.000000,,2013-02-18 20:22:00,
2013-02-18 20:32:00,20.0,14.0,-100.00,West,269,2.0,8.0,78,0.00,,,0.00,96.000000,,2013-02-18 20:32:00,
2013-02-18 20:42:00,20.0,14.0,-100.00,West,269,2.0,8.0,78,0.00,,,0.00,96.000000,,2013-02-18 20:42:00,
2013-02-18 20:52:00,20.0,14.0,-100.00,West,269,2.0,8.0,78,0.00,,,0.00,96.000000,,2013-02-18 20:52:00,
2013-02-18 21:21:00,19.0,12.0,-100.00,WSW,241,2.0,6.0,74,0.00,,,0.00,94.000000,,2013-02-18 21:21:00,
2013-02-18 21:32:00,19.0,12.0,-100.00,WSW,241,2.0,6.0,74,0.00,,,0.00,94.000000,,2013-02-18 21:32:00,
2013-02-18 21:42:00,19.0,12.0,-100.00,WSW,241,2.0,6.0,74,0.00,,,0.00,94.000000,,2013-02-18 21:42:00,
2013-02-18 21:52:00,19.0,12.0,-100.00,WSW,241,2.0,6.0,74,0.00,,,0.00,94.000000,,2013-02-18 21:52:00,
2013-02-18 22:22:00,21.0,13.0,-100.00,SW,228,2.0,6.0,71,0.00,,,0.00,156.000000,,2013-02-18 22:22:00,
2013-02-18 22:33:00,21.0,13.0,-100.00,SW,228,2.0,6.0,71,0.00,,,0.00,156.000000,,2013-02-18 22:33:00,
2013-02-18 22:42:00,21.0,13.0,-100.00,SW,228,2.0,6.0,71,0.00,,,0.00,156.000000,,2013-02-18 22:42:00,
2013-02-18 22:52:00,21.0,13.0,-100.00,SW,228,2.0,6.0,71,0.00,,,0.00,156.000000,,2013-02-18 22:52:00,
2013-02-18 23:22:00,20.0,12.0,-100.00,WNW,298,3.0,6.0,71,0.00,,,0.00,161.000000,,2013-02-18 23:22:00,
2013-02-18 23:32:00,20.0,12.0,-100.00,WNW,298,3.0,6.0,71,0.00,,,0.00,161.000000,,2013-02-18 23:32:00,
2013-02-18 23:42:00,20.0,12.0,-100.00,WNW,298,3.0,6.0,71,0.00,,,0.00,161.000000,,2013-02-18 23:42:00,
2013-02-18 23:52:00,20.0,12.0,-100.00,WNW,298,3.0,6.0,71,0.00,,,0.00,161.000000,,2013-02-18 23:52:00,